Probability
31 27 23 22 22 23 24 25 26 27 26 25 25 24 23 23 23 22 20 19 18 17 16 17 17 17 16 14 14 14 15 14 12 10 9 12 13 11 11 14 16 14 11
30 26 22 21 23 25 26 28 28 28 26 25 24 23 23 22 22 21 20 19 18 16 15 16 16 16 15 14 13 14 14 14 12 11 11 12 12 11 12 14 16 15 13
29 27 23 22 25 28 30 30 30 29 27 24 21 21 22 22 21 21 19 18 17 15 14 13 13 13 14 13 12 11 11 12 12 12 12 12 11 11 11 12 14 15 14
29 28 26 25 26 29 30 30 29 28 25 22 22 21 20 20 19 19 17 16 14 13 13 12 11 11 12 12 10 8 9 10 11 12 11 11 10 10 10 10 11 12 13
29 28 26 26 26 27 28 29 27 25 22 21 22 21 18 15 14 14 14 13 12 11 11 11 9 9 9 8 6 5 6 7 9 10 10 10 10 10 10 9 9 9 9
28 27 26 24 24 25 26 26 24 21 19 19 20 19 15 10 8 7 10 11 11 10 11 10 8 7 6 5 4 3 4 4 5 7 9 9 10 10 9 9 8 7 6
27 27 26 24 23 23 22 21 21 20 17 17 18 17 13 9 6 4 6 9 10 11 10 9 8 6 5 3 3 3 3 3 3 5 7 8 9 9 8 8 8 7 6
25 25 24 23 23 22 19 18 20 20 18 18 17 16 14 11 7 4 4 6 9 10 10 9 9 7 5 3 3 3 3 2 2 3 4 5 6 6 6 6 6 5 4
24 23 21 20 20 19 17 17 20 21 20 18 16 15 14 12 8 4 2 5 8 9 10 9 9 7 5 3 3 3 1 1 0 1 1 2 2 2 3 4 5 5 4
19 19 19 18 17 16 16 17 19 19 17 14 12 13 14 12 8 3 2 6 9 9 10 9 8 6 4 3 3 2 1 0 0 0 0 1 1 2 3 4 6 6 6
15 16 17 17 16 16 15 16 16 14 12 9 8 10 13 11 7 2 2 6 8 9 9 8 6 4 3 3 3 2 1 0 0 0 0 1 2 3 4 5 7 8 8
11 11 13 13 14 14 13 12 12 11 10 8 8 10 11 10 7 3 1 3 5 6 7 6 3 1 1 2 2 2 1 0 0 0 0 1 1 2 4 6 8 9 9
7 8 9 10 10 11 10 9 9 10 10 9 9 11 11 11 8 4 1 1 1 3 4 3 1 0 0 1 1 1 0 0 0 1 1 1 2 2 3 5 7 8 9
5 6 7 7 7 8 8 7 8 9 8 8 8 11 12 11 9 6 2 1 1 1 1 1 0 1 1 1 1 1 1 1 1 2 2 3 3 3 3 4 5 6 6
4 5 6 6 6 6 6 6 5 5 5 5 5 7 9 9 6 5 3 2 1 1 0 0 1 2 2 2 2 2 2 2 2 2 2 3 3 3 3 4 4 5 5
2 3 4 4 5 4 4 4 3 2 2 2 2 3 4 3 2 2 1 1 0 0 0 0 1 1 1 1 2 2 3 4 4 2 1 1 1 2 3 4 5 4 5
1 2 3 3 3 3 4 4 2 1 1 1 0 0 0 0 0 0 0 0 0 0 0 0 0 0 1 2 2 1 2 5 6 3 2 1 1 1 2 3 3 3 4
1 1 3 3 3 2 4 5 4 3 3 2 1 1 0 0 0 0 0 0 0 0 0 0 0 0 1 3 3 2 3 5 4 3 3 2 2 2 1 1 1 2 2
2 1 2 3 2 2 3 5 5 4 4 4 3 2 1 0 0 0 0 0 0 0 0 0 0 1 3 5 5 4 3 3 1 1 2 2 1 1 1 0 0 1 1
2 1 1 3 2 1 1 3 5 5 4 4 3 2 1 0 0 0 0 1 1 1 1 1 0 1 3 5 5 3 2 1 0 0 1 1 0 0 0 0 0 0 1
3 2 2 3 2 1 2 3 4 4 4 3 2 1 1 1 0 0 1 2 2 2 2 2 2 2 3 3 2 1 0 0 0 0 0 0 0 0 0 0 0 0 1
4 4 3 4 3 3 4 5 5 4 3 2 1 0 0 0 0 1 1 3 3 3 4 4 3 3 2 1 0 0 0 0 0 0 0 0 0 0 0 0 0 0 0
4 4 5 6 5 5 5 6 5 3 2 1 1 1 1 1 1 2 3 3 3 4 5 6 5 3 2 1 0 0 0 0 0 1 0 0 0 0 0 0 0 0 0
4 5 5 6 5 4 4 4 3 2 2 2 3 2 2 2 3 3 3 3 4 5 6 6 5 4 3 2 1 0 0 0 0 0 0 0 0 0 0 0 0 0 0
4 4 4 4 4 4 4 4 3 3 3 4 4 3 3 3 3 3 4 4 5 6 6 5 4 3 3 3 2 1 0 0 0 0 0 0 0 0 0 0 0 0 0
3 3 3 4 5 5 5 5 4 4 5 4 4 3 3 3 3 4 5 6 6 6 5 4 4 3 3 3 2 1 0 0 0 0 0 0 0 0 0 0 0 0 0
Wind_Speed
4 4 3 3 3 2 2 1 1 1 1 2 2 2 2 2 2 2 2 2 3 3 2 2 2 2 2 2 2 2 2 2 3 2 1 1 3 2 3 3 3 4 5
4 3 2 2 2 2 2 1 1 1 1 2 2 2 2 2 2 2 2 2 2 2 2 2 2 2 2 2 2 2 2 2 2 3 2 2 3 3 3 4 4 5 4
4 4 3 2 2 1 1 1 1 2 2 2 2 2 2 2 2 2 2 2 2 2 2 2 2 2 2 2 2 2 2 2 1 2 3 2 2 3 3 4 4 3 5
3 4 3 3 2 1 1 2 2 2 3 2 2 2 1 1 1 1 2 2 2 2 2 2 2 2 2 2 2 2 2 2 2 2 2 2 2 2 2 2 3 3 3
2 3 3 2 2 2 1 1 2 2 3 2 2 2 2 2 1 1 1 2 2 2 2 2 2 2 2 2 2 1 2 2 2 2 3 2 2 2 2 2 3 3 3
2 2 3 2 2 2 1 1 1 1 1 2 2 2 2 1 2 2 0 1 1 2 2 2 3 3 3 4 3 3 3 3 3 3 2 2 3 2 2 2 2 2 3
2 2 2 2 2 2 2 1 1 1 1 1 1 1 1 2 2 2 1 2 2 2 2 2 3 2 2 2 3 4 3 4 5 3 3 3 2 2 2 2 3 3 4
3 2 2 2 2 1 1 1 1 1 1 1 1 2 2 2 2 2 0 2 3 3 3 2 2 1 1 0 2 2 2 2 3 3 3 3 3 2 2 3 4 4 4
3 2 3 2 2 1 1 1 1 1 1 1 2 2 2 2 3 3 1 2 2 3 3 2 2 2 2 1 1 2 1 2 2 1 2 3 4 4 3 2 3 3 4
2 1 1 1 1 1 1 1 1 1 1 2 2 2 2 3 4 4 3 2 2 2 2 2 2 2 3 2 1 2 3 2 2 3 3 4 5 6 7 5 4 3 3
1 1 1 1 2 2 2 2 2 2 2 3 3 2 2 3 5 5 4 2 2 2 2 1 1 3 3 3 3 3 4 3 3 3 4 4 4 4 4 5 5 4 4
0 1 0 0 1 1 2 2 2 3 3 4 3 3 2 3 4 5 6 5 4 3 2 1 1 3 3 4 4 5 5 4 3 3 3 3 3 3 3 3 4 4 4
1 1 1 1 0 1 1 2 2 2 2 2 2 2 2 2 3 4 5 6 5 3 2 2 2 4 4 4 6 6 5 4 3 3 3 3 2 2 2 2 3 3 4
2 1 1 0 0 0 0 1 1 1 1 1 1 1 1 1 2 2 2 3 3 2 2 2 4 5 5 4 4 4 4 3 3 3 3 2 2 2 2 2 2 2 3
2 1 1 1 0 1 1 0 1 0 0 1 1 1 0 0 1 2 2 1 1 1 1 2 2 2 2 2 2 2 2 2 3 3 3 2 2 2 2 2 2 2 3
2 1 1 1 0 1 1 0 1 1 2 1 1 1 0 2 2 2 2 2 2 1 1 2 2 2 2 2 2 2 2 2 2 2 2 2 2 2 2 2 2 3 3
2 2 1 1 1 1 1 1 1 1 2 1 1 2 3 3 3 3 2 2 2 2 2 3 2 2 2 2 1 2 2 2 2 2 2 2 2 2 3 3 3 3 3
1 1 1 2 2 2 1 2 2 2 1 2 3 4 5 5 4 4 2 0 1 2 3 3 2 2 2 2 2 2 2 1 1 2 2 2 2 2 3 3 3 3 3
2 2 1 2 3 2 2 2 2 1 0 0 1 2 5 4 3 3 2 2 3 2 2 2 2 2 2 2 2 2 1 1 1 2 2 1 2 2 3 3 3 4 4
2 2 2 3 4 3 3 2 2 1 1 0 0 1 2 1 1 1 2 3 3 2 2 2 2 2 1 2 2 1 1 1 2 2 2 2 2 2 3 4 3 3 3
3 2 3 4 4 3 3 2 2 2 2 1 0 2 2 0 0 0 0 1 2 2 2 2 2 2 2 2 1 2 2 2 2 2 2 2 3 3 3 3 4 4 4
3 3 3 3 3 2 3 3 2 2 2 2 0 2 3 1 1 1 1 1 2 2 2 2 2 2 2 2 1 1 2 2 2 2 3 3 3 3 3 4 4 4 4
4 3 3 2 3 3 3 3 2 2 2 1 1 0 2 2 1 0 1 1 2 2 2 2 2 2 2 2 2 1 2 2 2 3 3 4 4 4 4 4 5 5 5
4 4 4 2 2 3 3 3 2 2 2 2 1 1 1 1 1 1 1 1 2 2 2 2 2 3 3 2 2 2 2 2 3 3 4 4 5 4 4 5 5 6 6
3 4 4 3 3 3 3 3 3 3 3 3 2 2 2 2 1 1 1 1 2 2 3 3 2 2 3 3 3 3 2 2 2 3 3 4 5 5 5 6 6 6 6
3 4 3 3 3 3 3 2 2 3 3 2 2 2 2 2 2 2 2 2 2 2 2 2 2 3 3 3 3 2 1 1 2 3 4 4 5 5 5 5 7 7 7
Wind_Direction
176 181 181 185 192 186 194 181 170 172 184 194 202 203 206 208 208 216 223 210 213 210 218 217 224 231 260 278 273 257 245 227 238 254 235 203 187 196 179 196 196 199 211
174 175 171 181 186 187 192 186 183 180 198 200 205 210 218 215 209 221 230 231 222 211 213 216 236 233 233 260 265 257 253 240 227 243 244 235 211 193 191 211 216 221 213
176 169 153 159 165 183 179 199 216 204 208 215 210 217 219 222 219 220 214 228 230 228 225 220 228 232 230 243 267 270 255 255 230 239 244 235 226 203 193 228 236 235 232
168 164 163 168 160 182 190 198 215 220 218 215 217 216 212 212 218 233 234 226 223 233 234 225 234 233 231 233 243 257 273 280 258 249 251 243 233 215 200 226 252 244 250
167 170 164 165 166 184 193 213 223 229 228 216 220 207 201 205 207 209 249 234 226 225 231 226 230 216 199 217 243 244 262 266 262 254 247 249 242 223 223 229 246 249 251
181 186 167 169 177 194 205 216 227 248 251 234 227 213 213 211 103 93 350 256 245 235 236 239 232 210 196 203 218 223 233 244 261 261 261 252 246 247 240 249 257 262 265
187 189 180 178 193 202 220 204 219 248 252 247 240 215 170 135 129 104 46 289 258 244 241 236 250 234 195 216 216 215 229 244 238 244 255 268 270 257 258 267 270 268 260
193 201 197 199 201 173 169 187 212 245 261 264 245 222 186 164 146 140 320 267 265 251 239 232 227 217 192 228 248 232 244 262 247 232 241 264 277 287 253 249 256 261 264
199 202 205 207 193 170 180 183 192 225 254 264 260 237 192 159 169 165 178 263 266 262 240 232 219 159 142 165 261 251 257 272 290 297 264 259 262 260 248 252 259 265 273
213 210 165 165 167 184 186 182 196 220 243 253 255 254 188 167 166 163 181 241 260 269 253 210 179 168 162 161 236 260 254 262 281 289 275 263 254 247 235 223 232 246 264
230 147 130 164 185 190 179 181 202 220 227 232 231 237 192 170 163 170 186 233 254 257 257 238 153 163 189 218 233 242 247 263 266 261 259 252 246 241 226 217 219 225 241
71 89 94 203 224 181 167 191 209 220 229 226 218 220 201 170 166 185 199 220 251 261 264 270 151 183 218 237 241 239 247 258 252 250 253 253 245 239 238 229 224 224 229
76 82 17 317 287 213 189 199 231 237 245 230 211 212 198 166 165 184 207 231 249 254 280 314 276 247 239 234 230 236 240 238 241 248 248 250 250 249 250 246 234 231 239
70 58 52 329 220 213 218 224 231 233 248 263 260 248 205 145 133 161 215 235 243 244 262 272 257 242 244 247 237 233 231 237 244 255 263 256 249 260 257 251 247 244 252
52 39 9 313 230 159 210 268 243 328 223 252 289 294 259 244 189 176 205 233 258 288 288 254 240 229 226 234 235 228 224 227 234 248 259 260 257 250 261 267 256 262 259
18 7 352 338 295 205 195 119 34 169 149 150 210 281 186 145 146 184 216 230 237 227 218 243 249 247 247 241 245 247 241 240 247 253 259 264 263 262 264 268 264 257 263
357 337 314 316 315 274 232 215 252 224 205 215 233 251 236 224 221 237 253 285 267 198 216 243 250 256 266 265 260 261 258 255 253 263 266 271 273 270 270 269 265 264 264
328 324 306 301 289 281 274 267 253 243 212 209 220 231 228 225 232 242 238 292 259 211 227 244 248 253 262 263 260 266 278 283 276 272 274 276 278 282 281 276 272 269 271
290 286 295 302 296 298 293 283 281 275 289 120 120 182 214 218 224 245 205 230 259 265 260 254 261 264 267 270 266 270 278 282 300 296 286 280 284 284 284 287 285 285 279
278 287 298 294 292 292 285 290 300 323 339 2 51 74 131 160 188 200 203 237 258 281 300 305 299 295 282 281 283 294 312 325 320 310 315 311 304 299 292 290 287 280 270
279 261 241 265 270 274 287 298 306 310 296 280 53 98 115 168 302 350 249 251 290 304 311 316 310 310 305 304 322 332 328 320 320 316 311 305 302 298 296 294 293 291 288
293 287 263 261 273 285 287 284 285 284 286 288 253 153 166 212 269 314 324 319 298 289 297 304 307 311 318 313 320 319 316 321 326 324 316 307 297 292 291 289 291 296 300
285 293 295 288 291 287 280 288 287 295 310 312 311 276 209 243 258 284 299 299 299 305 299 299 304 314 334 346 351 351 347 344 326 315 310 301 295 290 289 287 286 287 283
304 307 298 299 303 304 311 319 324 324 316 318 322 305 283 276 299 334 319 317 325 337 336 332 332 340 354 359 2 14 34 6 335 320 311 301 297 299 299 292 286 282 279
306 310 312 314 305 301 302 306 313 321 327 335 335 337 328 327 343 343 326 330 327 333 334 332 333 337 344 358 11 33 35 16 358 330 307 292 289 290 293 294 293 295 292
298 302 307 309 304 301 301 309 315 316 315 322 337 338 326 320 331 344 346 343 325 320 315 312 326 341 339 0 32 59 70 0 333 313 297 289 285 286 291 288 290 290 292